RH
71 100 100 100 100 81 95 81 61 64 68 34 26 25 27 27 30 34 33 35 86 76 28 11 11 12 13 15 15 17 26 37 41 44 51 45 41 46 27 22 23 24 24
78 100 100 100 100 92 75 94 68 78 96 56 42 29 29 31 37 37 39 53 100 46 13 12 12 14 15 15 17 21 26 31 41 40 42 44 42 43 30 25 24 25 24
87 100 85 98 100 96 88 97 74 91 100 73 54 46 39 37 39 46 53 92 100 33 14 14 12 14 16 18 20 20 23 27 33 36 36 37 35 38 33 24 24 24 26
95 100 100 98 100 89 99 89 74 90 100 80 64 51 46 45 55 72 92 100 100 32 15 12 14 15 17 18 19 24 23 26 31 37 41 39 38 36 33 29 26 25 26
100 100 100 100 100 100 92 96 83 99 99 98 62 55 65 77 89 100 100 100 100 41 18 13 17 15 17 17 21 21 23 23 27 38 44 46 42 39 28 30 32 27 28
100 100 100 100 100 99 100 100 92 100 87 93 73 79 78 86 65 77 87 100 97 39 23 17 16 13 14 17 14 25 21 31 30 37 40 37 47 48 41 37 31 30 31
100 100 100 100 100 100 94 100 100 100 96 96 100 94 97 67 29 32 99 100 86 44 25 20 16 15 14 16 16 24 29 39 32 36 34 32 38 47 55 42 36 33 32
100 100 100 100 100 100 83 100 100 100 100 100 97 88 80 45 24 29 92 92 87 44 28 24 17 17 19 18 24 30 34 41 40 39 54 37 37 44 51 52 51 42 36
100 100 100 100 100 100 90 78 100 100 100 98 100 97 89 50 30 28 100 89 65 33 32 24 20 23 28 29 25 45 31 26 32 42 46 32 32 41 48 53 57 45 52
100 100 100 100 100 100 100 75 100 100 93 90 100 95 78 50 27 62 100 72 35 27 38 30 28 30 37 45 40 37 36 37 34 35 26 35 28 32 39 46 55 52 55
100 100 100 100 87 100 100 78 100 100 97 98 99 100 88 52 30 85 60 44 36 51 51 49 37 43 43 68 54 42 62 70 34 39 38 27 37 35 33 40 44 50 54
100 100 100 100 93 98 100 72 63 97 100 98 85 96 85 61 34 92 56 24 38 83 95 82 64 55 58 60 49 40 62 88 33 40 44 32 25 33 36 35 37 40 48
99 100 100 100 88 88 100 92 51 61 100 98 92 96 77 67 40 40 59 39 87 98 95 100 97 54 92 53 35 38 61 61 53 49 44 27 24 27 29 34 34 36 35
100 100 100 100 80 84 100 100 77 65 100 100 99 80 86 63 42 25 31 88 59 38 31 56 100 80 70 38 32 26 40 61 50 53 48 34 28 27 32 28 33 35 36
100 100 100 100 100 93 100 100 100 72 79 96 100 75 91 67 45 27 35 100 56 53 38 82 43 98 67 42 34 29 29 42 45 56 54 40 34 29 32 33 34 32 31
100 100 100 100 100 100 100 100 100 82 73 82 97 77 97 81 54 30 31 90 52 74 80 58 40 60 91 55 63 51 35 68 37 48 60 75 49 34 38 34 35 34 32
100 100 100 93 98 96 100 100 100 100 90 67 81 59 84 95 59 44 42 50 62 38 42 58 47 48 91 63 49 53 34 41 47 44 50 74 68 58 46 50 34 31 34
100 100 100 97 99 94 100 100 100 100 96 77 97 52 53 78 66 80 100 68 74 59 53 44 68 53 30 86 79 60 40 46 50 53 47 63 74 84 68 65 43 34 31
100 100 100 97 100 100 75 99 100 100 100 100 100 89 82 78 59 63 75 99 100 91 94 78 74 100 86 43 85 78 41 48 50 52 60 58 71 95 87 81 60 42 35
100 100 100 100 86 100 100 100 100 100 100 100 100 98 81 94 66 80 88 70 79 100 100 94 58 55 75 70 92 83 54 66 62 60 76 59 49 95 100 88 80 67 46
100 100 100 100 100 84 100 100 97 100 100 100 100 100 88 60 77 79 72 71 81 58 75 82 74 87 100 100 98 100 85 83 90 83 84 65 61 55 56 99 100 92 58
100 100 100 100 100 100 89 100 77 91 100 100 100 100 96 69 97 100 92 79 88 91 86 81 76 75 74 78 100 100 100 90 100 90 75 85 80 67 45 68 91 100 77
64 100 100 100 100 100 100 90 100 71 93 91 100 100 97 56 80 100 87 100 88 99 93 72 80 81 89 63 96 100 100 100 100 100 81 100 89 76 54 69 96 85 79
44 98 100 100 100 100 100 100 98 92 100 100 80 85 61 60 88 100 95 99 96 93 99 80 67 88 77 95 100 100 100 100 100 99 90 100 100 99 92 100 98 100 73
38 36 97 100 100 100 100 100 96 60 83 100 98 99 75 73 100 100 93 51 75 100 100 100 82 69 67 86 100 100 100 100 100 93 87 100 100 100 100 100 100 100 94
18 31 35 96 100 100 100 100 100 98 66 98 92 100 89 82 98 100 100 95 92 100 100 100 93 66 99 97 100 100 100 100 99 81 100 100 100 100 100 100 100 100 83
Wind_Speed
32 30 26 27 24 23 21 19 20 24 21 20 22 23 26 27 28 30 32 36 34 29 32 31 33 36 37 40 42 45 47 47 50 53 57 56 61 66 67 63 59 51 50
33 23 24 29 26 23 23 22 19 23 23 20 20 21 23 25 26 27 32 36 22 25 28 26 34 39 41 42 47 49 52 51 51 53 56 57 59 61 63 60 60 58 54
37 33 31 29 26 26 23 22 21 23 22 21 22 21 21 24 26 28 34 26 21 22 26 20 26 32 41 45 51 50 50 52 49 53 55 56 57 57 62 63 56 59 55
42 36 35 33 32 30 25 25 24 24 22 22 21 22 22 24 28 30 33 19 18 21 25 20 20 27 35 44 51 52 52 54 55 50 54 57 59 57 59 60 62 59 57
46 41 37 34 35 30 27 27 28 24 22 21 19 20 21 23 23 22 23 16 15 19 23 22 21 23 31 37 41 54 54 56 60 53 50 54 57 58 58 58 60 62 61
49 44 40 33 34 30 28 28 28 25 21 21 20 19 21 20 20 18 16 11 14 16 21 23 23 22 28 34 42 45 54 55 60 55 53 53 55 58 61 59 60 60 64
49 46 43 40 38 31 29 27 27 25 22 21 21 22 22 20 21 19 17 9 12 16 18 23 22 22 26 31 38 40 48 54 58 61 54 51 52 54 57 59 61 61 64
51 45 42 39 37 33 32 31 29 25 21 23 24 24 22 21 21 22 16 14 13 15 17 21 21 24 27 30 37 40 46 52 56 60 61 51 53 52 53 55 61 62 62
55 50 44 42 42 38 37 34 32 28 25 25 24 24 25 25 26 23 15 15 13 16 18 20 20 23 27 31 33 38 42 49 53 58 61 49 51 53 53 57 59 59 61
57 55 50 47 43 40 38 37 35 31 28 28 26 26 25 24 25 21 14 13 14 16 18 22 24 25 26 31 35 37 37 44 50 55 57 54 50 52 54 56 57 56 58
56 55 54 51 48 45 41 38 38 35 33 29 27 24 22 23 24 17 14 15 15 16 18 21 23 27 28 31 36 36 36 38 43 49 54 54 53 54 55 55 56 57 57
63 59 57 55 51 47 46 45 42 41 36 32 28 27 24 24 24 21 19 18 16 18 16 20 21 26 28 31 33 31 32 34 39 45 49 54 59 58 55 57 57 57 58
64 60 58 54 50 47 48 47 47 44 39 37 36 29 27 26 25 25 27 20 21 15 15 21 21 24 26 32 31 30 34 36 36 40 45 49 56 61 60 57 59 60 59
73 65 64 60 55 50 50 50 50 46 41 39 39 33 28 27 26 24 24 18 19 22 21 22 23 25 25 32 33 29 33 36 35 36 39 44 48 55 60 62 59 60 60
78 72 67 61 59 57 54 52 53 51 45 43 41 36 32 29 28 25 23 23 23 26 25 29 27 25 30 30 30 33 33 36 37 36 38 42 44 49 56 57 63 60 61
78 78 73 68 65 58 58 59 55 56 50 48 44 39 37 33 33 30 28 26 24 23 26 27 31 26 32 34 34 35 33 36 36 36 37 40 44 43 52 53 59 64 64
78 75 77 72 69 71 63 59 58 58 55 51 50 44 41 34 36 33 33 31 30 30 30 29 28 24 30 34 36 37 35 33 36 38 39 41 43 44 47 53 55 62 63
77 77 76 70 69 68 70 68 62 57 60 55 52 48 51 46 44 38 34 35 36 33 33 30 32 32 28 34 38 39 36 35 37 40 40 41 44 44 48 50 56 61 64
81 79 77 74 71 70 69 72 68 64 60 59 56 52 52 49 48 49 44 37 39 38 38 38 27 36 41 36 41 41 39 38 40 39 42 44 43 46 50 53 56 59 65
87 84 81 74 78 74 72 69 67 67 65 63 61 58 52 54 52 51 49 51 44 42 43 40 34 33 38 41 45 43 40 45 44 44 42 49 44 48 50 53 56 62 66
90 89 85 83 75 80 80 78 74 71 68 69 64 61 58 56 58 56 55 50 51 52 48 45 43 42 46 49 49 48 44 46 46 45 48 50 52 53 55 55 61 60 64
95 95 91 89 86 75 82 81 81 80 75 71 66 66 63 62 59 57 55 53 52 55 55 50 49 46 43 46 48 50 51 50 52 49 51 51 53 57 61 58 61 59 63
98 97 97 93 91 89 82 85 80 80 78 75 75 73 72 69 64 60 58 56 54 50 49 48 45 47 44 45 48 55 53 48 52 54 56 55 57 62 65 61 61 60 64
93 102 101 98 91 90 89 86 84 80 77 74 77 77 76 74 68 65 61 61 58 57 55 54 52 48 47 49 51 52 54 53 56 56 55 57 62 65 66 63 65 64 72
92 100 103 104 95 93 90 88 88 84 83 80 79 81 78 78 73 69 66 61 62 64 64 62 58 55 52 55 54 52 54 57 57 59 57 61 65 66 67 68 67 69 78
91 93 105 104 103 94 92 93 92 87 87 91 86 80 80 77 79 73 68 64 64 69 65 65 64 58 58 58 58 61 63 66 68 62 63 63 69 67 69 71 72 76 79
Wind_Direction
263 277 258 267 269 279 276 287 296 301 287 289 290 292 295 304 314 315 323 330 337 346 354 15 21 15 15 13 12 8 11 11 6 6 7 8 8 7 12 14 18 19 18
260 263 263 266 265 276 288 279 290 292 285 288 289 290 294 303 306 318 319 328 343 352 359 27 27 27 25 22 18 13 12 10 11 8 10 10 11 11 17 16 14 18 21
258 260 261 266 260 284 283 286 285 288 280 288 291 290 291 297 304 310 312 330 335 349 354 16 20 23 24 24 18 16 12 9 10 13 13 14 13 14 16 19 21 19 22
255 254 260 262 269 278 281 289 288 285 278 284 290 293 297 297 304 310 311 325 327 346 348 3 9 17 16 18 16 15 14 9 10 10 12 15 15 18 17 25 21 22 24
250 255 257 261 264 272 277 279 283 280 281 281 286 294 297 304 310 320 318 327 322 343 340 357 5 4 7 7 9 11 15 15 13 12 10 13 14 18 19 20 22 25 30
249 252 255 255 258 268 274 267 274 281 279 278 287 290 293 302 306 317 325 317 315 340 336 347 356 350 350 356 359 5 12 14 15 13 13 14 14 14 18 18 24 27 28
246 250 253 255 257 256 268 262 263 276 276 275 281 287 288 294 300 310 312 289 307 331 334 344 350 349 343 351 354 360 3 5 6 10 12 12 13 13 12 19 23 26 26
244 247 248 251 253 248 258 259 256 267 279 273 273 282 282 290 302 309 304 285 301 320 330 329 340 352 354 346 350 354 2 2 5 5 9 10 14 15 12 12 18 23 26
242 239 242 242 243 245 251 256 253 258 270 273 270 281 280 290 296 303 285 286 299 314 317 331 342 345 348 353 350 352 8 8 9 9 6 13 16 17 16 15 15 17 15
239 239 238 239 240 242 246 255 247 255 266 272 265 276 277 286 294 294 267 285 304 304 313 320 328 341 342 347 346 348 352 2 6 10 12 14 14 15 16 17 17 14 15
236 236 238 240 240 241 242 246 247 253 263 264 261 267 272 283 288 276 281 278 295 308 311 317 319 332 343 345 344 348 353 353 4 7 7 12 13 14 14 15 15 13 13
234 236 236 240 239 242 242 244 245 248 256 260 257 259 268 275 284 269 289 276 288 302 319 322 321 328 338 340 342 346 348 350 359 2 2 5 10 10 10 14 15 13 11
234 232 235 236 237 237 242 240 248 249 253 260 257 257 264 269 273 276 276 288 288 290 302 305 320 326 327 331 337 343 345 342 346 358 357 5 4 6 6 8 12 12 9
240 231 231 234 236 237 241 244 239 251 250 256 255 256 256 262 267 269 278 284 267 293 305 305 314 315 318 321 324 333 341 339 341 347 352 357 1 2 4 4 8 11 11
237 234 232 231 232 234 237 239 236 243 249 251 249 256 251 255 259 259 269 273 276 288 296 302 304 309 314 315 318 322 333 336 337 337 342 350 351 355 360 2 2 4 3
235 235 234 231 231 234 236 240 237 244 246 249 244 249 252 250 253 254 262 263 272 284 288 301 303 310 313 312 313 318 321 331 334 333 332 333 343 346 352 357 358 359 1
232 232 234 235 235 234 230 235 239 244 244 247 244 248 246 247 252 254 257 258 260 273 282 293 297 311 309 312 309 315 312 326 329 329 330 326 330 337 341 349 354 355 355
230 229 230 230 231 233 229 233 235 237 244 246 249 252 249 244 252 250 254 254 259 269 279 280 290 302 307 304 310 310 311 314 323 327 332 327 322 327 332 339 348 351 349
226 228 230 229 224 228 233 232 235 234 239 244 245 244 248 252 259 253 247 253 259 261 272 277 279 287 297 304 305 306 306 314 320 324 324 327 320 317 320 330 336 345 345
224 226 226 229 227 227 227 229 233 236 236 241 244 245 248 250 255 253 253 255 254 259 268 274 288 292 293 299 299 301 297 305 317 321 320 320 326 316 314 321 326 334 339
223 225 227 223 229 230 229 232 236 236 238 240 243 245 248 257 257 257 256 257 260 261 262 269 276 284 286 292 295 292 293 298 308 313 315 318 324 323 326 313 316 324 334
223 223 226 228 224 229 232 233 236 238 238 239 241 245 248 255 254 254 256 258 262 262 267 270 272 277 284 290 292 287 293 292 298 310 312 314 320 321 325 316 312 315 324
225 223 224 226 229 227 232 236 236 239 240 242 243 243 248 251 250 249 256 257 261 261 263 270 274 273 281 288 289 286 294 297 299 304 311 308 314 318 321 311 307 310 318
228 224 224 225 227 230 232 237 237 237 239 241 242 245 247 248 247 248 252 255 258 261 264 271 275 275 279 285 287 288 293 293 303 306 308 302 309 313 314 305 304 311 319
230 227 225 224 225 228 229 233 238 237 239 240 243 242 241 245 246 246 252 260 262 263 264 270 273 275 279 279 283 283 286 293 297 302 306 304 303 309 309 302 304 308 315
233 231 227 226 225 225 228 231 237 237 240 241 240 240 242 241 245 245 250 255 258 261 262 265 270 272 280 282 278 277 283 290 294 300 301 306 302 304 302 300 302 307 314